Home > Weather > Herzogenrath > Past weeks

Flag for Germany Weather for the Past 2 Weeks in Herzogenrath, North Rhine-Westphalia, Germany

Now
37 °F

Clear.


Feels Like: 37 °F
Forecast: 40 / 64 °F
Wind: 1 mph from South

Location: Geilenkirchen Airport

Current Time: May 4, 2016 at 2:25:59 AM

Latest Report: May 4, 2016 at 1:50 AM


Visibility: 10 mi

Pressure: 30.36 "Hg

Humidity: 87%

Dew Point: 34 °F

Location of HerzogenrathLocation

Historic Weather in Herzogenrath — Graph

°F

Herzogenrath Temperature Yesterday

Maximum temperature yesterday: 57 °F (at 1:50 PM)
Minimum temperature yesterday: 41 °F (at 11:50 PM)
Average temperature yesterday: 52 °F

High & Low Weather Summary for the Past Weeks

 TemperatureHumidityPressure
High66 °F (Apr 21, 2:50 PM)94% (May 3, 7:50 AM)30.48 "Hg (May 3, 7:50 AM)
Low32 °F (Apr 20, 4:50 AM)32% (Apr 21, 1:50 PM)29.53 "Hg (Apr 26, 9:50 AM)
Average47 °F71%30.05 "Hg
* Reported Apr 19 12:50 AM — May 4 12:50 AM, Herzogenrath, Weather by CustomWeather, © 2016

Note: Actual official high and low records may vary slightly from our data, if they occured in-between our weather recording intervals... More about our weather records

Advertising

Herzogenrath Weather History for the Previous 24 Hours

Scroll right to see more
 ConditionsComfort  
Time TempWeatherWind HumidityBarometerVisibility
12:50 AM
Wed, May 4
39 °FClear.1 mph87%30.36 "Hg10 mi
11:50 PM
Tue, May 3
41 °FClear.No wind76%30.36 "Hg10 mi
10:50 PM46 °FClear.3 mph62%30.36 "Hg10 mi
9:50 PM46 °FSunny.7 mph66%30.33 "Hg10 mi
8:50 PM52 °FSunny.9 mph54%30.30 "Hg10 mi
7:50 PM55 °FSunny.8 mph44%30.30 "Hg10 mi
6:50 PM55 °FSunny.9 mph47%30.27 "Hg10 mi
5:50 PM55 °FSunny.14 mph47%30.27 "Hg10 mi
4:50 PM57 °FSunny.13 mph44%30.27 "Hg10 mi
3:50 PM57 °FSunny.14 mph51%30.24 "Hg10 mi
2:50 PM57 °FScattered clouds.13 mph51%30.24 "HgN/A
1:50 PM57 °FScattered clouds.15 mph51%30.24 "HgN/A
12:50 PM54 °FScattered clouds.16 mph58%30.21 "HgN/A
11:50 AM55 °FScattered clouds.17 mph59%30.21 "HgN/A
10:50 AM54 °FScattered clouds.14 mph72%30.18 "HgN/A
9:50 AM50 °FScattered clouds.7 mph88%30.18 "HgN/A
8:50 AM50 °FBroken clouds.8 mph88%30.15 "HgN/A
7:50 AM48 °FBroken clouds.12 mph94%30.12 "HgN/A
6:50 AM46 °FPassing clouds.10 mph93%30.12 "HgN/A
5:50 AM50 °FLight rain. Partly cloudy.17 mph88%30.09 "HgN/A
4:50 AM52 °FLight rain. Passing clouds.7 mph88%30.07 "HgN/A
3:50 AM54 °FPassing clouds.7 mph82%30.07 "HgN/A
2:50 AM54 °FLight rain. Passing clouds.9 mph82%30.09 "HgN/A
Weather by CustomWeather, © 2016

See weather overviewHow to use our weather pages